Weather History for Pottstown, PA

Change the Weather History Date:

Sunday, February 3, 2013

  Actual Average (KRDG) Record (KRDG)
Temperature  
Mean Temperature 24 °F 30 °F  
Max Temperature 30 °F 39 °F 63 °F (1991)
Min Temperature 18 °F 21 °F 1 °F (1994)
Degree Days  
Heating Degree Days 41 35  
Month to date heating degree days 105  
Since 1 July heating degree days 3230  
Cooling Degree Days 0 0  
Month to date cooling degree days 0  
Year to date cooling degree days 0  
Moisture  
Dew Point 21 °F    
Average Humidity 83    
Maximum Humidity 96    
Minimum Humidity 58    
Precipitation  
Precipitation 0.01 in 0.08 in 1.40 in (1939)
Month to date precipitation 0.24  
Year to date precipitation 3.29  
Sea Level Pressure  
Sea Level Pressure 29.91 in    
Wind  
Wind Speed 1 mph (West)    
Max Wind Speed 13 mph    
Max Gust Speed 24 mph    
Visibility 7 miles    
Events Snow    
T = Trace of Precipitation, MM = Missing Value Source: NWS Daily Summary

Daily Weather History Graph

Daily Weather History Graph

Search for Another Location

Airport:

Trip Planner

Search our weather history database for the weather conditions in past years. The results will help you decide how hot, cold, wet, or windy it might be!

Date:

Astronomy

Feb. 03, 2013 Rise Set
Actual Time 7:09 AM EST 5:23 PM EST
Civil Twilight 6:40 AM EST 5:52 PM EST
Nautical Twilight 6:08 AM EST 6:24 PM EST
Astronomical Twilight 5:36 AM EST 6:56 PM EST
Moon 12:33 AM EST (2/3) 10:59 AM EST (2/3)
Length of Visible Light 11h 11m
Length of Day
10h 14m
Waning Gibbous, 49% of the Moon is Illuminated
Feb 3
Waning Gibbous
Feb 10
New
Feb 17
First Quarter
Feb 25
Full
Mar 4
Last Quarter

Hourly Weather History & Observations

Time (EST) Temp. Windchill Dew Point Humidity Pressure Visibility Wind Dir Wind Speed Gust Speed Precip Events Conditions
12:06 AM 24.8 °F - 21.2 °F 86% 30.04 in 2.5 mi Calm Calm - 0.00 in Snow Light Snow
12:10 AM 24.8 °F - 21.2 °F 86% 30.03 in 4.0 mi Calm Calm - 0.00 in Snow Light Snow
12:54 AM 25.0 °F 20.7 °F 23.0 °F 92% 30.02 in 9.0 mi SSE 3.5 mph - 0.00 in   Overcast
1:01 AM 24.8 °F - 23.0 °F 93% 30.01 in 9.0 mi Calm Calm - N/A   Overcast
1:17 AM 24.8 °F - 21.2 °F 86% 30.01 in 7.0 mi Calm Calm - N/A   Overcast
1:54 AM 25.0 °F - 23.0 °F 92% 30.00 in 7.0 mi Calm Calm - 0.00 in   Overcast
2:54 AM 25.0 °F - 23.0 °F 92% 29.97 in 8.0 mi Calm Calm - N/A   Overcast
3:54 AM 24.1 °F - 21.9 °F 91% 29.95 in 7.0 mi Calm Calm - N/A   Overcast
4:54 AM 24.1 °F - 21.9 °F 91% 29.94 in 7.0 mi Calm Calm - N/A   Overcast
5:31 AM 24.8 °F 20.5 °F 21.2 °F 86% 29.93 in 8.0 mi NNE 3.5 mph - N/A   Overcast
5:54 AM 24.1 °F - 21.0 °F 88% 29.94 in 8.0 mi Calm Calm - N/A   Overcast
6:27 AM 21.2 °F - 19.4 °F 93% 29.94 in 7.0 mi Calm Calm - N/A   Scattered Clouds
6:54 AM 19.0 °F - 18.0 °F 96% 29.94 in 6.0 mi Calm Calm - N/A   Scattered Clouds
7:54 AM 18.0 °F - 16.0 °F 92% 29.95 in 4.0 mi Calm Calm - N/A   Partly Cloudy
8:54 AM 24.1 °F - 21.0 °F 88% 29.96 in 6.0 mi Calm Calm - N/A   Overcast
9:54 AM 25.0 °F - 21.0 °F 85% 29.94 in 8.0 mi Calm Calm - N/A   Overcast
10:09 AM 24.8 °F 19.1 °F 19.4 °F 80% 29.94 in 8.0 mi East 4.6 mph - N/A   Overcast
10:54 AM 25.0 °F - 19.9 °F 81% 29.93 in 8.0 mi Calm Calm - N/A   Overcast
11:54 AM 26.1 °F - 19.9 °F 78% 29.90 in 8.0 mi Calm Calm - N/A   Overcast
12:54 PM 26.1 °F - 19.0 °F 75% 29.87 in 9.0 mi Calm Calm - N/A   Scattered Clouds
1:54 PM 27.0 °F - 19.0 °F 72% 29.85 in 10.0 mi Calm Calm - N/A   Scattered Clouds
2:54 PM 28.9 °F - 19.9 °F 69% 29.83 in 10.0 mi Calm Calm - N/A   Mostly Cloudy
3:54 PM 30.0 °F 26.5 °F 19.9 °F 66% 29.83 in 10.0 mi WNW 3.5 mph - N/A   Mostly Cloudy
4:54 PM 28.9 °F 25.2 °F 19.9 °F 69% 29.82 in 10.0 mi WSW 3.5 mph - N/A   Clear
5:54 PM 27.0 °F - 19.9 °F 75% 29.82 in 10.0 mi Calm Calm - N/A   Scattered Clouds
6:54 PM 25.0 °F - 19.0 °F 78% 29.83 in 9.0 mi Calm Calm - N/A   Clear
7:54 PM 28.0 °F - 21.0 °F 75% 29.83 in 7.0 mi Calm Calm - N/A   Overcast
8:54 PM 27.0 °F - 21.9 °F 81% 29.83 in 6.0 mi Calm Calm - N/A   Haze
9:19 PM 26.6 °F 21.2 °F 21.2 °F 80% 29.84 in 2.5 mi NW 4.6 mph - 0.00 in Snow Light Snow
9:28 PM 26.6 °F - 24.8 °F 93% 29.84 in 1.0 mi Calm Calm - 0.01 in Snow Light Snow
9:54 PM 27.0 °F - 25.0 °F 92% 29.84 in 1.8 mi Calm Calm - 0.01 in Snow Light Snow
10:26 PM 26.6 °F 20.0 °F 24.8 °F 93% 29.85 in 1.0 mi West 5.8 mph - 0.00 in Snow Light Snow
10:50 PM 26.6 °F 16.2 °F 21.2 °F 80% 29.85 in 3.0 mi West 11.5 mph 24.2 mph 0.00 in Snow Light Snow
10:54 PM 28.0 °F 18.1 °F 21.0 °F 75% 29.86 in 7.0 mi West 11.5 mph 19.6 mph 0.00 in   Overcast
11:03 PM 28.4 °F 19.7 °F 19.4 °F 69% 29.86 in 10.0 mi West 9.2 mph 23.0 mph N/A   Overcast
11:54 PM 25.0 °F 13.6 °F 12.0 °F 58% 29.89 in 10.0 mi West 12.7 mph 23.0 mph N/A   Scattered Clouds